Météo par heure à Kytaihorodka

Ce jour, 24 Juillet, Samedi

Heure Température Précipitation Vent Pression Humidité
00:00 +18°C° 0 mm 3 m/s 748 mmHg 62%
01:00 +18°C° 0 mm 3 m/s 748 mmHg 64%
02:00 +18°C° 0 mm 3 m/s 748 mmHg 65%
03:00 +17°C° 0 mm 3 m/s 748 mmHg 66%
04:00 +17°C° 0 mm 3 m/s 748 mmHg 68%
05:00 +17°C° 0 mm 3 m/s 748 mmHg 69%
06:00 +19°C° 0 mm 3 m/s 748 mmHg 63%
07:00 +21°C° 0 mm 3 m/s 748 mmHg 57%
08:00 +24°C° 0 mm 3 m/s 748 mmHg 51%
09:00 +25°C° 0 mm 3 m/s 748 mmHg 47%
10:00 +27°C° 0 mm 3 m/s 749 mmHg 43%
11:00 +28°C° 0 mm 3 m/s 749 mmHg 38%
12:00 +28°C° 0 mm 3 m/s 749 mmHg 37%
13:00 +29°C° 0 mm 3 m/s 748 mmHg 35%
14:00 +29°C° 0 mm 3 m/s 748 mmHg 34%
15:00 +29°C° 0 mm 3 m/s 748 mmHg 37%
16:00 +28°C° 0 mm 4 m/s 749 mmHg 41%
17:00 +27°C° 0 mm 5 m/s 749 mmHg 44%
18:00 +26°C° 0 mm 4 m/s 749 mmHg 47%
19:00 +25°C° 0 mm 4 m/s 749 mmHg 50%
20:00 +22°C° 0 mm 3 m/s 750 mmHg 53%
21:00 +22°C° 0 mm 3 m/s 750 mmHg 54%
22:00 +22°C° 0 mm 3 m/s 750 mmHg 56%
23:00 +21°C° 0 mm 3 m/s 750 mmHg 58%

Demain, 25 Juillet, Dimanche

Heure Température Précipitation Vent Pression Humidité
00:00 +21°C° 0 mm 3 m/s 750 mmHg 59%
01:00 +20°C° 0 mm 3 m/s 750 mmHg 60%
02:00 +20°C° 0 mm 3 m/s 750 mmHg 61%
03:00 +20°C° 0 mm 3 m/s 750 mmHg 63%
04:00 +19°C° 0 mm 3 m/s 751 mmHg 64%
05:00 +19°C° 0 mm 3 m/s 751 mmHg 66%
06:00 +21°C° 0 mm 3 m/s 751 mmHg 61%
07:00 +24°C° 0 mm 3 m/s 751 mmHg 56%
08:00 +26°C° 0 mm 3 m/s 751 mmHg 52%
09:00 +27°C° 0 mm 3 m/s 752 mmHg 47%
10:00 +28°C° 0 mm 3 m/s 752 mmHg 42%
11:00 +29°C° 0 mm 3 m/s 752 mmHg 38%
12:00 +30°C° 0 mm 3 m/s 752 mmHg 37%
13:00 +30°C° 0 mm 2 m/s 752 mmHg 36%
14:00 +30°C° 0 mm 2 m/s 751 mmHg 35%
15:00 +30°C° 0 mm 2 m/s 751 mmHg 37%
16:00 +29°C° 0 mm 2 m/s 751 mmHg 39%
17:00 +29°C° 0 mm 2 m/s 751 mmHg 40%
18:00 +27°C° 0 mm 3 m/s 751 mmHg 46%
19:00 +26°C° 0 mm 3 m/s 752 mmHg 52%
20:00 +23°C° 0 mm 4 m/s 752 mmHg 57%
21:00 +23°C° 0 mm 4 m/s 752 mmHg 58%
22:00 +23°C° 0 mm 4 m/s 752 mmHg 58%
23:00 +22°C° 0 mm 4 m/s 752 mmHg 59%

Après-demain, 26 Juillet, Lundi

Heure Température Précipitation Vent Pression Humidité
00:00 +22°C° 0 mm 4 m/s 752 mmHg 59%
01:00 +22°C° 0 mm 4 m/s 752 mmHg 60%
02:00 +21°C° 0 mm 4 m/s 752 mmHg 60%
03:00 +21°C° 0 mm 4 m/s 752 mmHg 60%
04:00 +21°C° 0 mm 4 m/s 752 mmHg 60%
05:00 +21°C° 0 mm 4 m/s 753 mmHg 60%
06:00 +22°C° 0 mm 4 m/s 753 mmHg 57%
07:00 +23°C° 0 mm 4 m/s 753 mmHg 54%
08:00 +25°C° 0 mm 4 m/s 753 mmHg 51%
09:00 +26°C° 0 mm 5 m/s 753 mmHg 48%
10:00 +27°C° 0 mm 5 m/s 753 mmHg 44%
11:00 +29°C° 0 mm 5 m/s 753 mmHg 41%
12:00 +30°C° 0 mm 5 m/s 753 mmHg 38%
13:00 +32°C° 0 mm 5 m/s 753 mmHg 35%
14:00 +33°C° 0 mm 4 m/s 752 mmHg 32%
15:00 +33°C° 0 mm 4 m/s 752 mmHg 34%
16:00 +32°C° 0 mm 4 m/s 752 mmHg 35%
17:00 +32°C° 0 mm 4 m/s 752 mmHg 37%
18:00 +29°C° 0 mm 4 m/s 752 mmHg 41%
19:00 +27°C° 0 mm 4 m/s 752 mmHg 46%
20:00 +26°C° 0 mm 4 m/s 753 mmHg 50%
21:00 +25°C° 0 mm 4 m/s 753 mmHg 51%
22:00 +23°C° 0 mm 4 m/s 753 mmHg 52%
23:00 +23°C° 0 mm 4 m/s 753 mmHg 52%

27 Juillet, Mardi

Heure Température Précipitation Vent Pression Humidité
00:00 +22°C° 0 mm 4 m/s 753 mmHg 53%
01:00 +22°C° 0 mm 4 m/s 753 mmHg 54%
02:00 +21°C° 0 mm 4 m/s 753 mmHg 56%
03:00 +21°C° 0 mm 4 m/s 753 mmHg 57%
04:00 +21°C° 0 mm 3 m/s 753 mmHg 59%
05:00 +20°C° 0 mm 3 m/s 753 mmHg 60%
06:00 +22°C° 0 mm 4 m/s 753 mmHg 56%
07:00 +25°C° 0 mm 4 m/s 753 mmHg 51%
08:00 +27°C° 0 mm 4 m/s 753 mmHg 47%
09:00 +29°C° 0 mm 4 m/s 753 mmHg 43%
10:00 +30°C° 0 mm 3 m/s 753 mmHg 40%
11:00 +31°C° 0 mm 3 m/s 753 mmHg 36%
12:00 +31°C° 0 mm 3 m/s 753 mmHg 35%
13:00 +32°C° 0 mm 2 m/s 753 mmHg 35%
14:00 +32°C° 0 mm 2 m/s 752 mmHg 34%
15:00 +31°C° 0 mm 2 m/s 752 mmHg 36%
16:00 +31°C° 0 mm 2 m/s 752 mmHg 38%
17:00 +30°C° 0 mm 2 m/s 752 mmHg 40%
18:00 +29°C° 0 mm 2 m/s 752 mmHg 44%
19:00 +28°C° 0 mm 2 m/s 752 mmHg 47%
20:00 +26°C° 0 mm 2 m/s 752 mmHg 51%
21:00 +26°C° 0 mm 2 m/s 752 mmHg 51%
22:00 +26°C° 0 mm 2 m/s 752 mmHg 51%
23:00 +26°C° 0 mm 1 m/s 752 mmHg 51%

28 Juillet, Mercredi

Heure Température Précipitation Vent Pression Humidité
00:00 +25°C° 0 mm 1 m/s 752 mmHg 52%
01:00 +25°C° 0 mm 1 m/s 752 mmHg 54%
02:00 +24°C° 0 mm 1 m/s 752 mmHg 56%
03:00 +24°C° 0 mm 1 m/s 752 mmHg 58%
04:00 +23°C° 0 mm 1 m/s 752 mmHg 60%
05:00 +23°C° 0 mm 1 m/s 752 mmHg 63%
06:00 +25°C° 0 mm 1 m/s 752 mmHg 57%
07:00 +27°C° 0 mm 2 m/s 752 mmHg 52%
08:00 +29°C° 0 mm 2 m/s 752 mmHg 46%
09:00 +30°C° 0 mm 2 m/s 752 mmHg 42%
10:00 +31°C° 0 mm 3 m/s 752 mmHg 38%
11:00 +33°C° 0 mm 3 m/s 752 mmHg 34%
12:00 +34°C° 0 mm 3 m/s 751 mmHg 32%
13:00 +34°C° 0 mm 3 m/s 751 mmHg 30%
14:00 +35°C° 0 mm 3 m/s 751 mmHg 29%
15:00 +34°C° 0 mm 3 m/s 750 mmHg 30%
16:00 +34°C° 0 mm 3 m/s 750 mmHg 31%
17:00 +34°C° 0 mm 3 m/s 750 mmHg 31%
18:00 +31°C° 0 mm 3 m/s 750 mmHg 34%
19:00 +29°C° 0 mm 3 m/s 749 mmHg 37%
20:00 +28°C° 0 mm 3 m/s 749 mmHg 40%
21:00 +27°C° 0 mm 3 m/s 749 mmHg 44%
22:00 +26°C° 0 mm 3 m/s 749 mmHg 48%
23:00 +25°C° 0 mm 3 m/s 749 mmHg 52%

29 Juillet, Jeudi

Heure Température Précipitation Vent Pression Humidité
00:00 +25°C° 0 mm 3 m/s 749 mmHg 54%
01:00 +24°C° 0 mm 3 m/s 749 mmHg 56%
02:00 +24°C° 0 mm 3 m/s 748 mmHg 58%
03:00 +24°C° 0 mm 3 m/s 748 mmHg 61%
04:00 +23°C° 0 mm 4 m/s 749 mmHg 64%
05:00 +22°C° 0 mm 4 m/s 749 mmHg 67%
06:00 +23°C° 0 mm 4 m/s 749 mmHg 67%
07:00 +25°C° 0 mm 4 m/s 749 mmHg 66%
08:00 +26°C° 0 mm 4 m/s 748 mmHg 66%
09:00 +28°C° 0 mm 5 m/s 748 mmHg 59%
10:00 +30°C° 0 mm 5 m/s 748 mmHg 51%
11:00 +33°C° 0 mm 6 m/s 748 mmHg 44%
12:00 +33°C° 0 mm 6 m/s 747 mmHg 41%
13:00 +34°C° 0 mm 6 m/s 747 mmHg 39%
14:00 +35°C° 0 mm 6 m/s 747 mmHg 37%
15:00 +34°C° 0 mm 5 m/s 747 mmHg 39%
16:00 +33°C° 0 mm 5 m/s 746 mmHg 42%
17:00 +33°C° 0 mm 4 m/s 746 mmHg 44%
18:00 +30°C° 0 mm 4 m/s 746 mmHg 50%
19:00 +28°C° 0 mm 4 m/s 747 mmHg 56%
20:00 +26°C° 0 mm 3 m/s 747 mmHg 62%
21:00 +25°C° 0.1 mm 3 m/s 747 mmHg 67%
22:00 +24°C° 0.1 mm 3 m/s 747 mmHg 73%
23:00 +24°C° 0.1 mm 3 m/s 748 mmHg 79%
Voir plus

Nous avons besoin de votre consentement

Meteoprog et ses fournisseurs de services peuvent stocker et accéder à des données personnelles telles que des cookies, des identifiants d'appareils ou d'autres technologies similaires sur votre appareil et traiter ces données pour personnaliser le contenu et les publicités, ainsi que pour fournir des fonctionnalités de médias sociaux et analyser le trafic.

  • Stocker et/ou accéder à des informations sur votre appareil

    Des cookies, des identifiants d'appareils ou d'autres informations peuvent être stockés ou accessibles sur votre appareil aux fins indiquées ci-dessus.

  • Annonces et contenus personnalisés, mesure des annonces et des contenus, connaissance de l'audience et développement de produits

    Les annonces et le contenu peuvent être personnalisés en fonction d'un profil. D'autres données peuvent être ajoutées pour mieux personnaliser les annonces et le contenu. Les performances des publicités et du contenu peuvent être mesurées. Il est possible d'obtenir des informations sur le public qui a vu les publicités et le contenu. Ces données peuvent être utilisées pour développer ou améliorer l'expérience de l'utilisateur, les systèmes et les logiciels.

En cliquant sur "J'accepte", vous autorisez l'utilisation de cookies, des identifiants d'appareils, des balises web ou d'autres technologies similaires. Vos paramètres peuvent être modifiés dans le navigateur de votre appareil.

Dans certains cas, des intérêts légitimes peuvent être invoqués plutôt qu'un consentement. Vous pouvez en savoir plus à ce sujet dans notre Politique de confidentialité et de cookies.